This demonstration page uses our WeatherBlox Daily Observations layout. Learn more.

Left ArrowRight Arrow

41.86663, -103.66717

Hourly Observations for August 16, 2020

Temp ( °F °C ) Dew Point ( °F °C ) Humidity (%) Winds ( mph kmh ) Pressure ( in mb ) Visibility ( mi km ) Precip ( " mm )
12:53 am 00:53 Clear 65 18.3 62 16.7 90 90 E 6 9 30.01 1016 10 16 N/A
1:53 am 01:53 Clear 65 18.3 62 16.7 90 90 NE 6 9 30.01 1016 10 16 N/A
2:53 am 02:53 Clear 65 18.3 62 16.7 90 90 undefined N/A 30.01 1016 10 16 N/A
3:53 am 03:53 Clear 61 16.1 60 15.6 97 97 NW 3 6 30.02 1017 10 16 N/A
4:53 am 04:53 Clear 61 16.1 60 15.6 97 97 N N/A 30.02 1017 10 16 N/A
5:53 am 05:53 Clear 59 15 57 13.9 93 93 NW 6 9 30.04 1017 8 13 N/A
6:53 am 06:53 Sunny 59 15 57 13.9 93 93 NW 7 11 30.08 1019 10 16 N/A
7:53 am 07:53 Sunny 65 18.3 58 14.4 78 78 WNW 6 9 30.10 1019 10 16 N/A
8:53 am 08:53 Sunny 72 22.2 60 15.6 66 66 WSW 3 6 30.09 1019 10 16 N/A
9:53 am 09:53 Sunny 79 26.1 62 16.7 56 56 N N/A 30.10 1019 10 16 N/A
10:53 am 10:53 Sunny 85 29.4 61 16.1 45 45 E 3 6 30.08 1019 10 16 N/A
11:53 am 11:53 Sunny 93 33.9 44 6.7 18 18 ENE 13 20 30.06 1018 10 16 N/A
12:53 pm 12:53 Sunny 94 34.4 43 6.1 17 17 ENE 13 20 30.06 1018 10 16 N/A
1:53 pm 13:53 Sunny 95 35 46 7.8 19 19 NE 10 17 30.06 1018 10 16 N/A
2:53 pm 14:53 Sunny 95 35 43 6.1 17 17 ENE 12 19 30.06 1018 10 16 N/A
3:53 pm 15:53 Sunny 95 35 41 5 15 15 ENE 8 13 30.06 1018 10 16 N/A
4:53 pm 16:53 Sunny 94 34.4 42 5.6 17 17 ENE 8 13 30.05 1018 10 16 N/A
5:53 pm 17:53 Sunny 92 33.3 45 7.2 20 20 E 7 11 30.04 1017 10 16 N/A
6:53 pm 18:53 Sunny 87 30.6 50 10 28 28 ENE 10 17 30.06 1018 10 16 N/A
7:53 pm 19:53 Clear 79 26.1 47 8.3 32 32 ENE 10 17 30.08 1019 10 16 N/A
8:53 pm 20:53 Clear 76 24.4 46 7.8 35 35 ENE 12 19 30.11 1020 10 16 N/A
9:53 pm 21:53 Clear 70 21.1 49 9.4 47 47 E 7 11 30.14 1021 10 16 N/A
10:53 pm 22:53 Clear 67 19.4 52 11.1 59 59 E 6 9 30.17 1022 10 16 N/A
11:53 pm 23:53 Clear 65 18.3 51 10.6 61 61 ENE 7 11 30.16 1021 10 16 N/A

Powered by AerisWeather